K1UTS Weather Reports


time (UTC)temp
F
wind
direction
speed
knots
gust
knots
rain 1hr
in
rain 24hr
in
rain mn
in
humidity
%
barometer
mb
20230131233041 26 336 0.0 3.5 0.00 0.03 0.03 57 1021.7
20230131231540 26 333 0.0 1.7 0.00 0.03 0.03 61 1021.6
20230131230048 26 36 0.0 3.5 0.00 0.03 0.03 57 1021.5
20230131224536 27 88 0.9 3.5 0.00 0.03 0.03 57 1021.3
20230131223031 27 336 0.9 2.6 0.00 0.03 0.03 57 1021.0
20230131221534 28 340 0.0 3.5 0.00 0.03 0.03 56 1020.8
20230131220025 28 346 0.9 2.6 0.00 0.03 0.03 52 1020.7
20230131214521 29 338 0.0 2.6 0.00 0.03 0.03 55 1020.4
20230131213020 29 337 0.9 2.6 0.00 0.03 0.03 51 1020.4
20230131211518 30 336 0.0 1.7 0.00 0.03 0.03 51 1020.4
20230131210015 30 5 0.9 3.5 0.00 0.03 0.03 48 1020.3
20230131204513 31 342 0.0 3.5 0.00 0.03 0.03 49 1020.1
20230131203013 31 65 0.9 2.6 0.00 0.03 0.03 57 1020.0
20230131201512 32 285 0.9 3.5 0.00 0.03 0.03 54 1019.8
20230131200009 32 351 0.9 2.6 0.00 0.03 0.03 54 1019.8
20230131194508 32 347 0.9 2.6 0.00 0.03 0.03 56 1019.8
20230131193013 32 335 0.9 2.6 0.00 0.03 0.03 55 1019.6
20230131191507 32 13 0.9 2.6 0.00 0.03 0.03 58 1019.5
20230131190005 32 31 0.9 2.6 0.00 0.03 0.03 57 1019.3
20230131184507 32 355 1.7 5.2 0.00 0.03 0.03 57 1019.3
20230131183004 34 355 1.7 3.5 0.00 0.03 0.03 59 1019.2
20230131181503 32 11 0.9 3.5 0.00 0.03 0.03 60 1019.1
20230131180002 32 346 0.9 3.5 0.00 0.03 0.03 59 1019.1
20230131174501 33 51 0.0 2.6 0.00 0.03 0.03 65 1019.0
20230131173002 33 331 0.9 3.5 0.00 0.03 0.03 62 1019.1
20230131171607 33 317 0.9 2.6 0.01 0.03 0.03 60 1019.2
20230131170059 34 332 0.9 2.6 0.01 0.03 0.03 60 1019.3
20230131164558 33 11 0.9 5.2 0.01 0.03 0.03 62 1019.4
20230131163056 34 331 0.9 2.6 0.02 0.03 0.03 66 1019.6
20230131161602 35 324 0.9 2.6 0.01 0.02 0.02 65 1019.8
20230131160053 33 272 0.0 2.6 0.02 0.02 0.02 68 1019.8
20230131154552 34 42 0.0 1.7 0.02 0.02 0.02 71 1019.7
20230131153053 33 140 0.0 1.7 0.01 0.01 0.01 75 1019.7
20230131151600 34 342 0.0 2.6 0.01 0.01 0.01 80 1019.5
20230131150050 33 336 0.0 0.9 0.00 0.00 0.00 84 1019.5
20230131144544 32 337 0.0 0.9 0.00 0.00 0.00 86 1019.1
20230131143045 31 337 0.0 0.9 0.00 0.00 0.00 87 1019.1
20230131141542 31 337 0.0 0.0 0.00 0.00 0.00 89 1018.9
20230131140055 31 337 0.0 0.0 0.00 0.00 0.00 89 1018.9
20230131134541 31 337 0.0 0.9 0.00 0.00 0.00 89 1018.9
20230131133045 30 337 0.0 0.0 0.00 0.00 0.00 90 1018.6
20230131131538 30 337 0.0 0.0 0.00 0.00 0.00 90 1018.6
20230131130051 30 337 0.0 0.0 0.00 0.00 0.00 89 1018.5
20230131124539 30 337 0.0 0.0 0.00 0.00 0.00 90 1018.3
20230131123036 30 337 0.0 0.0 0.00 0.00 0.00 91 1018.3
20230131121535 30 337 0.0 0.0 0.00 0.00 0.00 92 1018.1
20230131120034 30 337 0.0 0.0 0.00 0.00 0.00 92 1018.0
20230131114537 30 337 0.0 0.0 0.00 0.00 0.00 92 1017.9
20230131113032 30 337 0.0 0.0 0.00 0.00 0.00 93 1017.7
20230131111534 30 337 0.0 0.9 0.00 0.00 0.00 93 1017.6
20230131110027 30 337 0.0 1.7 0.00 0.00 0.00 93 1017.5
20230131104529 30 350 0.0 1.7 0.00 0.00 0.00 93 1017.6
20230131103025 31 344 0.0 1.7 0.00 0.00 0.00 94 1017.1
20230131101524 31 5 0.0 1.7 0.00 0.00 0.00 94 1017.1
20230131100020 32 112 0.0 0.9 0.00 0.00 0.00 94 1016.8
20230131094520 32 113 0.0 0.9 0.00 0.00 0.00 94 1016.8
20230131093018 32 113 0.0 0.9 0.00 0.00 0.00 94 1016.5
20230131091524 32 112 0.0 0.9 0.00 0.00 0.00 93 1016.6
20230131090015 32 112 0.0 0.9 0.00 0.00 0.00 93 1016.4
20230131084519 32 112 0.0 1.7 0.00 0.00 0.00 93 1016.2
20230131083013 33 343 0.0 0.9 0.00 0.00 0.00 93 1016.1
20230131081511 33 343 0.0 0.0 0.00 0.00 0.00 92 1015.9
20230131080010 33 343 0.0 0.9 0.00 0.00 0.00 92 1016.4
20230131074504 34 343 0.0 0.9 0.00 0.00 0.00 91 1015.8
20230131073008 34 343 0.0 0.0 0.00 0.00 0.00 90 1016.1
20230131071600 34 343 0.0 0.9 0.00 0.00 0.00 89 1016.2
20230131070056 35 343 0.0 1.7 0.00 0.00 0.00 89 1015.8
20230131064553 35 343 0.0 0.9 0.00 0.00 0.00 89 1015.5
20230131063052 35 343 0.0 0.0 0.00 0.00 0.00 89 1015.5
20230131061554 35 343 0.0 0.9 0.00 0.00 0.00 89 1015.4
20230131060106 35 343 0.0 0.9 0.00 0.00 0.00 89 1015.3
20230131054555 35 343 0.0 0.9 0.00 0.00 0.00 89 1015.4
20230131053050 35 343 0.0 1.7 0.00 0.00 0.00 89 1015.3
20230131051545 35 343 0.0 0.9 0.00 0.00 0.00 89 1015.6
20230131050046 36 343 0.0 0.9 0.00 0.00 0.00 88 1015.4
20230131044556 36 343 0.0 2.6 0.00 0.00 0.00 87 1015.7
20230131043043 37 346 0.9 2.6 0.00 0.00 0.00 86 1015.7
20230131041539 37 340 0.0 2.6 0.00 0.00 0.00 86 1015.8
20230131040040 38 350 1.7 3.5 0.00 0.00 0.00 86 1015.7
20230131034542 38 323 0.9 1.7 0.00 0.00 0.00 86 1015.5
20230131033037 39 326 0.9 1.7 0.00 0.00 0.00 87 1015.6
20230131031542 38 278 0.0 1.7 0.00 0.00 0.00 88 1015.2
20230131030048 38 270 0.9 1.7 0.00 0.00 0.00 87 1015.1
20230131024534 39 194 0.0 0.9 0.00 0.00 0.00 86 1015.1
20230131023036 39 194 0.0 0.9 0.00 0.00 0.00 86 1015.1
20230131021610 39 194 0.0 0.9 0.00 0.00 0.00 85 1015.1
20230131020032 39 194 0.0 0.0 0.00 0.00 0.00 84 1015.2
20230131014532 39 194 0.0 0.9 0.00 0.00 0.00 83 1015.2
20230131013034 39 194 0.0 0.9 0.00 0.00 0.00 83 1015.1
20230131011547 39 194 0.0 0.0 0.00 0.00 0.00 82 1015.1
20230131010032 39 194 0.0 0.9 0.00 0.00 0.00 81 1015.2
20230131004531 39 194 0.0 0.0 0.00 0.00 0.00 81 1015.5
20230131003035 39 194 0.0 0.0 0.00 0.00 0.00 81 1015.5
20230131001530 39 194 0.0 0.0 0.00 0.00 0.00 80 1015.7
20230131000030 40 194 0.0 0.9 0.00 0.00 0.00 79 1015.6
20230130234526 41 194 0.0 2.6 0.00 0.00 0.00 77 1015.7